Flag for U.S.A. Weather past 2 weeks in Lakewood, New Jersey, U.S.A.

Now
68 °F

Clear.


Feels Like: 68 °F
Forecast: 67 / 90 °F
Wind: 6 mph from Southwest

Location: Lakehurst Naval Air Station

Current Time: Aug 3, 2015 at 5:17:29 AM

Latest Report: Aug 3, 2015 at 4:00 AM


Visibility: 10 mi

Pressure: 29.85 "Hg

Humidity: 90%

Dew point: 65 °F

Location of LakewoodLocation

Historic Weather in Lakewood — Graph

°F

Lakewood temperature yesterday

Maximum temperature yesterday: 89 °F (at 2:00 PM)
Minimum temperature yesterday: 60 °F (at 5:00 AM)
Average temperature yesterday: 75 °F

Past Weeks' High & Low Weather Summary

 TemperatureHumidityPressure
High95 °F (Jul 19, 4:00 PM)100% (Jul 19, 4:00 AM)30.03 "Hg (Jul 19, 4:00 AM)
Low55 °F (Jul 25, 6:00 AM)25% (Aug 2, 2:00 PM)29.58 "Hg (Jul 21, 6:00 PM)
Average77 °F69%29.87 "Hg
* Reported Jul 19 4:00 AM — Aug 3 4:00 AM, Lakewood, Weather by CustomWeather, © 2015

Note: Actual official high and low records may vary slightly from our data, if they occured in-between our weather recording intervals... More about our weather records

Advertising

Lakewood weather history for previous 24 hours

 ConditionsComfort  
Time TempWeatherWind HumidityBarometerVisibility
4:00 AM
Mon, Aug 3
68 °FClear.6 mph90%29.85 "Hg10 mi
3:00 AM68 °FClear.3 mph84%29.85 "Hg10 mi
2:00 AM68 °FClear.3 mph78%29.87 "Hg10 mi
1:00 AM70 °FClear.5 mph73%29.88 "Hg10 mi
12:00 AM70 °FClear.6 mph76%29.87 "Hg10 mi
11:00 PM
Sun, Aug 2
70 °FClear.3 mph64%29.88 "Hg10 mi
10:00 PM71 °FClear.No wind57%29.89 "Hg10 mi
9:00 PM74 °FSunny.5 mph50%29.89 "Hg10 mi
8:00 PM80 °FSunny.6 mph41%29.88 "Hg10 mi
7:00 PM85 °FSunny.8 mph32%29.87 "Hg10 mi
6:00 PM87 °FSunny.12 mph30%29.88 "Hg10 mi
5:00 PM88 °FScattered clouds.13 mph27%29.89 "Hg10 mi
4:00 PM87 °FSunny.7 mph30%29.89 "Hg10 mi
3:00 PM89 °FBroken clouds.N/A25%29.89 "Hg10 mi
2:00 PM89 °FPassing clouds.No wind25%29.90 "Hg10 mi
1:00 PM85 °FPassing clouds.8 mph36%29.91 "Hg10 mi
12:00 PM86 °FSunny.7 mph35%29.93 "Hg10 mi
11:00 AM83 °FSunny.No wind43%29.93 "Hg10 mi
10:00 AM81 °FSunny.No wind47%29.92 "Hg10 mi
9:00 AM78 °FSunny.No wind60%29.92 "Hg10 mi
8:00 AM71 °FSunny.No wind71%29.91 "Hg10 mi
7:00 AM63 °FSunny.No wind90%29.90 "Hg10 mi
6:00 AM60 °FClear.No wind96%29.89 "Hg10 mi
5:00 AM60 °FClear.5 mph93%29.87 "Hg10 mi
Weather by CustomWeather, © 2015

See weather overviewHow to use our weather pages